Вернуться в каталог

STARLINK-30952

АктивенСвязьVLEO
NORAD 58405·PAYLOAD·🇺🇸 United States

Запущен Nov 22, 2023 с Cape Canaveral Space Force Station

Loading…

Ближайшие Пролёты (ближайшие 24 часа)

TLE

СвежийSource: CelesTrak SupGP

Эпоха: Sep 14, 2026, 21:17 UTC

1 58405C 23180D   26257.88729167  .00107400  00000+0  38900-2 0  2576
2 58405  43.0037  64.1779 0001486 281.1220 308.7624 15.27525071    16

Отслеживайте STARLINK-30952 в реальном времени с AllMySat

Download on the App Store